Time,TemperatureF,DewpointF,PressureIn,WindDirection,WindDirectionDegrees,WindSpeedMPH,WindSpeedGustMPH,Humidity,HourlyPrecipIn,Conditions,Clouds,dailyrainin,SoftwareType,DateUTC
2013-08-14 00:00:00,65.8,65.2,29.70,ESE,111,0.0,15.0,98,0.00,,,0.00,Wunderground v.1.15,2013-08-14 04:00:00,
2013-08-14 00:05:00,65.7,65.1,29.70,SE,124,0.0,15.0,98,0.00,,,0.00,Wunderground v.1.15,2013-08-14 04:05:00,
2013-08-14 00:10:00,65.7,65.1,29.70,ESE,123,0.0,15.0,98,0.00,,,0.00,Wunderground v.1.15,2013-08-14 04:10:00,
2013-08-14 00:20:00,65.6,65.0,29.70,SE,124,0.0,15.0,98,0.00,,,0.00,Wunderground v.1.15,2013-08-14 04:20:00,
2013-08-14 00:25:00,65.6,65.0,29.70,ESE,123,0.0,15.0,98,0.00,,,0.00,Wunderground v.1.15,2013-08-14 04:25:00,
2013-08-14 00:35:00,65.5,64.9,29.70,ESE,123,0.0,15.0,98,0.00,,,0.00,Wunderground v.1.15,2013-08-14 04:35:00,
2013-08-14 00:40:00,65.4,64.8,29.70,ESE,123,0.0,15.0,98,0.00,,,0.00,Wunderground v.1.15,2013-08-14 04:40:00,
2013-08-14 00:45:00,65.4,64.8,29.70,ESE,123,0.0,15.0,98,0.00,,,0.00,Wunderground v.1.15,2013-08-14 04:45:00,
2013-08-14 00:55:00,65.4,64.8,29.70,ESE,122,0.0,15.0,98,0.00,,,0.00,Wunderground v.1.15,2013-08-14 04:55:00,
2013-08-14 01:05:00,65.3,64.7,29.70,ESE,122,0.0,15.0,98,0.00,,,0.00,Wunderground v.1.15,2013-08-14 05:05:00,
2013-08-14 01:15:00,65.2,64.6,29.70,ESE,123,0.0,15.0,98,0.00,,,0.00,Wunderground v.1.15,2013-08-14 05:15:00,
2013-08-14 01:25:00,65.2,64.6,29.70,ENE,60,0.0,15.0,98,0.00,,,0.00,Wunderground v.1.15,2013-08-14 05:25:00,
2013-08-14 01:35:00,65.1,64.5,29.70,ENE,60,0.0,15.0,98,0.00,,,0.00,Wunderground v.1.15,2013-08-14 05:35:00,
2013-08-14 01:45:00,65.0,64.4,29.70,NNE,13,0.0,15.0,98,0.00,,,0.00,Wunderground v.1.15,2013-08-14 05:45:00,
2013-08-14 01:55:00,64.9,64.3,29.69,NNE,13,0.0,15.0,98,0.00,,,0.00,Wunderground v.1.15,2013-08-14 05:55:00,
2013-08-14 02:05:00,64.7,64.1,29.70,NNE,13,0.0,15.0,98,0.00,,,0.00,Wunderground v.1.15,2013-08-14 06:05:00,
2013-08-14 02:15:00,64.5,63.6,29.70,North,352,0.0,15.0,97,0.00,,,0.00,Wunderground v.1.15,2013-08-14 06:15:00,
2013-08-14 02:25:00,64.3,63.1,29.70,NW,316,0.0,15.0,96,0.00,,,0.00,Wunderground v.1.15,2013-08-14 06:25:00,
2013-08-14 02:35:00,64.3,61.9,29.69,WNW,301,2.0,15.0,92,0.00,,,0.00,Wunderground v.1.15,2013-08-14 06:35:00,
2013-08-14 02:45:00,64.2,61.2,29.69,NW,312,1.0,3.0,90,0.00,,,0.00,Wunderground v.1.15,2013-08-14 06:45:00,
2013-08-14 02:55:00,64.1,61.1,29.70,NW,324,1.0,15.0,90,0.00,,,0.00,Wunderground v.1.15,2013-08-14 06:55:00,
2013-08-14 03:05:00,63.8,60.8,29.70,North,354,0.0,15.0,90,0.00,,,0.00,Wunderground v.1.15,2013-08-14 07:05:00,
2013-08-14 03:10:00,63.7,60.7,29.70,WNW,297,0.0,15.0,90,0.00,,,0.00,Wunderground v.1.15,2013-08-14 07:10:00,
2013-08-14 03:20:00,63.3,60.0,29.70,WNW,301,1.0,15.0,89,0.00,,,0.00,Wunderground v.1.15,2013-08-14 07:20:00,
2013-08-14 03:25:00,63.3,60.0,29.70,NW,310,1.0,15.0,89,0.00,,,0.00,Wunderground v.1.15,2013-08-14 07:25:00,
2013-08-14 03:35:00,63.2,59.6,29.71,WNW,303,1.0,15.0,88,0.00,,,0.00,Wunderground v.1.15,2013-08-14 07:35:00,
2013-08-14 03:45:00,62.9,59.3,29.71,NW,311,1.0,15.0,88,0.00,,,0.00,Wunderground v.1.15,2013-08-14 07:45:00,
2013-08-14 03:55:00,62.7,59.1,29.71,NW,304,1.0,15.0,88,0.00,,,0.00,Wunderground v.1.15,2013-08-14 07:55:00,
2013-08-14 04:05:00,62.5,58.9,29.71,WNW,292,1.0,15.0,88,0.00,,,0.00,Wunderground v.1.15,2013-08-14 08:05:00,
2013-08-14 04:10:00,62.4,58.8,29.71,North,349,1.0,15.0,88,0.00,,,0.00,Wunderground v.1.15,2013-08-14 08:10:00,
2013-08-14 04:15:00,62.2,58.6,29.71,WNW,301,1.0,15.0,88,0.00,,,0.00,Wunderground v.1.15,2013-08-14 08:15:00,
2013-08-14 04:20:00,62.1,58.5,29.72,WNW,300,1.0,15.0,88,0.00,,,0.00,Wunderground v.1.15,2013-08-14 08:20:00,
2013-08-14 04:30:00,61.8,57.9,29.72,NNW,346,1.0,15.0,87,0.00,,,0.00,Wunderground v.1.15,2013-08-14 08:30:00,
2013-08-14 04:40:00,61.7,57.5,29.72,NW,317,1.0,15.0,86,0.00,,,0.00,Wunderground v.1.15,2013-08-14 08:40:00,
2013-08-14 04:50:00,61.4,56.5,29.72,WNW,299,1.0,15.0,84,0.00,,,0.00,Wunderground v.1.15,2013-08-14 08:50:00,
2013-08-14 05:00:00,61.3,55.8,29.72,WNW,303,1.0,15.0,82,0.00,,,0.00,Wunderground v.1.15,2013-08-14 09:00:00,
2013-08-14 05:05:00,61.1,55.6,29.72,West,273,1.0,15.0,82,0.00,,,0.00,Wunderground v.1.15,2013-08-14 09:05:00,
2013-08-14 05:10:00,61.0,55.1,29.72,WNW,297,1.0,1.0,81,0.00,,,0.00,Wunderground v.1.15,2013-08-14 09:10:00,
2013-08-14 05:15:00,60.9,55.4,29.73,WNW,303,1.0,15.0,82,0.00,,,0.00,Wunderground v.1.15,2013-08-14 09:15:00,
2013-08-14 05:25:00,60.7,55.2,29.73,NW,315,1.0,2.0,82,0.00,,,0.00,Wunderground v.1.15,2013-08-14 09:25:00,
2013-08-14 05:35:00,60.3,54.4,29.74,West,262,1.0,15.0,81,0.00,,,0.00,Wunderground v.1.15,2013-08-14 09:35:00,
2013-08-14 05:45:00,59.9,54.1,29.74,NW,314,1.0,15.0,81,0.00,,,0.00,Wunderground v.1.15,2013-08-14 09:45:00,
2013-08-14 05:50:00,59.7,53.9,29.75,WNW,303,1.0,15.0,81,0.00,,,0.00,Wunderground v.1.15,2013-08-14 09:50:00,
2013-08-14 06:00:00,59.4,53.6,29.75,NW,314,1.0,15.0,81,0.00,,,0.00,Wunderground v.1.15,2013-08-14 10:00:00,
2013-08-14 06:10:00,59.2,53.7,29.75,NW,304,0.0,15.0,82,0.00,,,0.00,Wunderground v.1.15,2013-08-14 10:10:00,
2013-08-14 06:15:00,59.0,53.5,29.75,NW,326,0.0,15.0,82,0.00,,,0.00,Wunderground v.1.15,2013-08-14 10:15:00,
2013-08-14 06:20:00,58.9,53.4,29.75,NW,317,1.0,1.0,82,0.00,,,0.00,Wunderground v.1.15,2013-08-14 10:20:00,
2013-08-14 06:30:00,58.7,53.2,29.76,NW,318,1.0,1.0,82,0.00,,,0.00,Wunderground v.1.15,2013-08-14 10:30:00,
2013-08-14 06:35:00,58.7,53.2,29.76,WNW,297,1.0,15.0,82,0.00,,,0.00,Wunderground v.1.15,2013-08-14 10:35:00,
2013-08-14 06:45:00,58.6,53.5,29.76,WNW,297,1.0,15.0,83,0.00,,,0.00,Wunderground v.1.15,2013-08-14 10:45:00,
2013-08-14 06:55:00,59.0,53.2,29.76,NW,318,0.0,15.0,81,0.00,,,0.00,Wunderground v.1.15,2013-08-14 10:55:00,
2013-08-14 07:05:00,59.3,53.1,29.76,NW,326,1.0,15.0,80,0.00,,,0.00,Wunderground v.1.15,2013-08-14 11:05:00,
2013-08-14 07:15:00,59.7,53.5,29.77,WNW,299,1.0,15.0,80,0.00,,,0.00,Wunderground v.1.15,2013-08-14 11:15:00,
2013-08-14 07:20:00,59.9,53.4,29.77,NW,314,1.0,1.0,79,0.00,,,0.00,Wunderground v.1.15,2013-08-14 11:20:00,
2013-08-14 07:30:00,60.4,53.2,29.77,NW,325,1.0,15.0,77,0.00,,,0.00,Wunderground v.1.15,2013-08-14 11:30:00,
2013-08-14 07:40:00,61.0,53.4,29.77,WNW,287,1.0,1.0,76,0.00,,,0.00,Wunderground v.1.15,2013-08-14 11:40:00,
2013-08-14 07:50:00,61.7,53.3,29.77,WSW,243,2.0,2.0,74,0.00,,,0.00,Wunderground v.1.15,2013-08-14 11:50:00,
2013-08-14 08:00:00,62.6,53.4,29.77,North,354,1.0,15.0,72,0.00,,,0.00,Wunderground v.1.15,2013-08-14 12:00:00,
2013-08-14 08:05:00,62.8,53.3,29.77,WNW,292,2.0,3.0,71,0.00,,,0.00,Wunderground v.1.15,2013-08-14 12:05:00,
2013-08-14 08:10:00,63.0,53.8,29.77,NW,322,2.0,2.0,72,0.00,,,0.00,Wunderground v.1.15,2013-08-14 12:10:00,
2013-08-14 08:15:00,63.2,53.6,29.77,NNW,343,2.0,15.0,71,0.00,,,0.00,Wunderground v.1.15,2013-08-14 12:15:00,
2013-08-14 08:25:00,63.6,53.6,29.78,WNW,297,2.0,15.0,70,0.00,,,0.00,Wunderground v.1.15,2013-08-14 12:25:00,
2013-08-14 08:35:00,64.1,53.7,29.78,WNW,295,2.0,6.0,69,0.00,,,0.00,Wunderground v.1.15,2013-08-14 12:35:00,
2013-08-14 08:45:00,64.6,53.8,29.78,WNW,293,2.0,15.0,68,0.00,,,0.00,Wunderground v.1.15,2013-08-14 12:45:00,
2013-08-14 08:50:00,65.0,53.8,29.77,WNW,290,2.0,15.0,67,0.00,,,0.00,Wunderground v.1.15,2013-08-14 12:50:00,
2013-08-14 09:00:00,65.1,53.5,29.77,NNE,20,2.0,15.0,66,0.00,,,0.00,Wunderground v.1.15,2013-08-14 13:00:00,
2013-08-14 09:10:00,65.2,52.7,29.77,NNW,329,2.0,15.0,64,0.00,,,0.00,Wunderground v.1.15,2013-08-14 13:10:00,
2013-08-14 09:15:00,65.3,54.1,29.77,NW,326,2.0,15.0,67,0.00,,,0.00,Wunderground v.1.15,2013-08-14 13:15:00,
2013-08-14 09:20:00,65.8,54.5,29.77,WNW,285,2.0,15.0,67,0.00,,,0.00,Wunderground v.1.15,2013-08-14 13:20:00,
2013-08-14 09:30:00,66.0,54.3,29.77,North,9,2.0,15.0,66,0.00,,,0.00,Wunderground v.1.15,2013-08-14 13:30:00,
2013-08-14 09:35:00,66.4,55.1,29.77,North,349,2.0,15.0,67,0.00,,,0.00,Wunderground v.1.15,2013-08-14 13:35:00,
2013-08-14 09:45:00,67.0,54.8,29.77,WNW,285,1.0,15.0,65,0.00,,,0.00,Wunderground v.1.15,2013-08-14 13:45:00,
2013-08-14 09:55:00,66.7,54.1,29.77,WNW,291,2.0,15.0,64,0.00,,,0.00,Wunderground v.1.15,2013-08-14 13:55:00,
2013-08-14 10:05:00,67.2,54.2,29.78,NW,316,2.0,15.0,63,0.00,,,0.00,Wunderground v.1.15,2013-08-14 14:05:00,
2013-08-14 10:15:00,67.3,54.7,29.78,WNW,288,2.0,15.0,64,0.00,,,0.00,Wunderground v.1.15,2013-08-14 14:15:00,
2013-08-14 10:20:00,67.6,55.0,29.78,NW,316,2.0,15.0,64,0.00,,,0.00,Wunderground v.1.15,2013-08-14 14:20:00,
2013-08-14 10:30:00,68.0,54.9,29.78,NNW,333,2.0,15.0,63,0.00,,,0.00,Wunderground v.1.15,2013-08-14 14:30:00,
2013-08-14 10:40:00,68.3,54.8,29.78,SW,215,1.0,15.0,62,0.00,,,0.00,Wunderground v.1.15,2013-08-14 14:40:00,
2013-08-14 10:50:00,68.2,54.2,29.78,NNW,333,3.0,15.0,61,0.00,,,0.00,Wunderground v.1.15,2013-08-14 14:50:00,
2013-08-14 11:00:00,68.3,53.4,29.78,WNW,289,2.0,15.0,59,0.00,,,0.00,Wunderground v.1.15,2013-08-14 15:00:00,
2013-08-14 11:05:00,68.4,53.5,29.78,WNW,298,3.0,15.0,59,0.00,,,0.00,Wunderground v.1.15,2013-08-14 15:05:00,
2013-08-14 11:10:00,68.3,54.8,29.79,SW,229,2.0,15.0,62,0.00,,,0.00,Wunderground v.1.15,2013-08-14 15:10:00,
2013-08-14 11:20:00,68.7,53.8,29.78,NW,324,3.0,3.0,59,0.00,,,0.00,Wunderground v.1.15,2013-08-14 15:20:00,
2013-08-14 11:25:00,69.0,53.6,29.79,WNW,293,2.0,5.0,58,0.00,,,0.00,Wunderground v.1.15,2013-08-14 15:25:00,
2013-08-14 11:35:00,68.8,53.4,29.78,NW,312,4.0,15.0,58,0.00,,,0.00,Wunderground v.1.15,2013-08-14 15:35:00,
2013-08-14 11:40:00,69.2,54.3,29.77,SSW,210,4.0,4.0,59,0.00,,,0.00,Wunderground v.1.15,2013-08-14 15:40:00,
2013-08-14 11:50:00,68.9,52.6,29.78,NE,53,4.0,4.0,56,0.00,,,0.00,Wunderground v.1.15,2013-08-14 15:50:00,
2013-08-14 12:00:00,69.3,52.9,29.78,WSW,243,3.0,3.0,56,0.00,,,0.00,Wunderground v.1.15,2013-08-14 16:00:00,
2013-08-14 12:05:00,69.8,54.4,29.78,WNW,284,2.0,15.0,58,0.00,,,0.00,Wunderground v.1.15,2013-08-14 16:05:00,
2013-08-14 12:10:00,69.9,54.0,29.78,North,352,3.0,15.0,57,0.00,,,0.00,Wunderground v.1.15,2013-08-14 16:10:00,
2013-08-14 12:15:00,69.7,52.8,29.78,NW,321,4.0,15.0,55,0.00,,,0.00,Wunderground v.1.15,2013-08-14 16:15:00,
2013-08-14 12:30:00,69.8,53.4,29.79,NNE,24,2.0,15.0,56,0.00,,,0.00,Wunderground v.1.15,2013-08-14 16:30:00,
2013-08-14 12:40:00,70.7,54.2,29.79,NNW,343,2.0,15.0,56,0.00,,,0.00,Wunderground v.1.15,2013-08-14 16:40:00,
2013-08-14 12:50:00,70.0,53.6,29.79,NW,322,3.0,15.0,56,0.00,,,0.00,Wunderground v.1.15,2013-08-14 16:50:00,
2013-08-14 13:00:00,69.4,54.4,29.80,WNW,298,2.0,2.0,59,0.00,,,0.00,Wunderground v.1.15,2013-08-14 17:00:00,
2013-08-14 13:10:00,69.6,54.6,29.79,NNW,343,2.0,15.0,59,0.00,,,0.00,Wunderground v.1.15,2013-08-14 17:10:00,
2013-08-14 13:15:00,69.2,54.3,29.80,West,266,2.0,15.0,59,0.00,,,0.00,Wunderground v.1.15,2013-08-14 17:15:00,
2013-08-14 13:25:00,69.3,54.4,29.80,WNW,282,2.0,15.0,59,0.00,,,0.00,Wunderground v.1.15,2013-08-14 17:25:00,
2013-08-14 13:35:00,69.7,54.7,29.80,WSW,256,2.0,15.0,59,0.00,,,0.00,Wunderground v.1.15,2013-08-14 17:35:00,
2013-08-14 13:45:00,70.5,54.0,29.80,WNW,294,2.0,15.0,56,0.00,,,0.00,Wunderground v.1.15,2013-08-14 17:45:00,
2013-08-14 13:55:00,70.9,54.9,29.79,West,274,2.0,15.0,57,0.00,,,0.00,Wunderground v.1.15,2013-08-14 17:55:00,
2013-08-14 14:00:00,70.3,53.4,29.79,NW,304,3.0,15.0,55,0.00,,,0.00,Wunderground v.1.15,2013-08-14 18:00:00,
2013-08-14 14:10:00,69.6,53.7,29.79,WSW,248,3.0,3.0,57,0.00,,,0.00,Wunderground v.1.15,2013-08-14 18:10:00,
2013-08-14 14:15:00,69.7,54.7,29.79,SW,236,3.0,15.0,59,0.00,,,0.00,Wunderground v.1.15,2013-08-14 18:15:00,
2013-08-14 14:25:00,69.7,52.8,29.79,WNW,300,3.0,15.0,55,0.00,,,0.00,Wunderground v.1.15,2013-08-14 18:25:00,
2013-08-14 14:40:00,69.9,54.0,29.79,North,5,3.0,15.0,57,0.00,,,0.00,Wunderground v.1.15,2013-08-14 18:40:00,
2013-08-14 14:45:00,69.8,54.4,29.79,SSW,207,3.0,15.0,58,0.00,,,0.00,Wunderground v.1.15,2013-08-14 18:45:00,
2013-08-14 14:55:00,70.0,53.6,29.79,WNW,294,2.0,15.0,56,0.00,,,0.00,Wunderground v.1.15,2013-08-14 18:55:00,
2013-08-14 15:00:00,69.8,54.4,29.79,NW,307,3.0,3.0,58,0.00,,,0.00,Wunderground v.1.15,2013-08-14 19:00:00,
2013-08-14 15:15:00,69.8,55.3,29.79,NW,307,2.0,15.0,60,0.00,,,0.00,Wunderground v.1.15,2013-08-14 19:15:00,
2013-08-14 15:25:00,70.2,55.2,29.79,North,354,1.0,6.0,59,0.00,,,0.00,Wunderground v.1.15,2013-08-14 19:25:00,
2013-08-14 15:30:00,70.3,55.3,29.79,SW,224,2.0,15.0,59,0.00,,,0.00,Wunderground v.1.15,2013-08-14 19:30:00,
2013-08-14 15:40:00,70.1,54.6,29.79,WNW,284,2.0,2.0,58,0.00,,,0.00,Wunderground v.1.15,2013-08-14 19:40:00,
2013-08-14 15:45:00,70.1,54.6,29.79,North,4,3.0,5.0,58,0.00,,,0.00,Wunderground v.1.15,2013-08-14 19:45:00,
2013-08-14 15:55:00,69.9,54.0,29.80,NNW,335,3.0,15.0,57,0.00,,,0.00,Wunderground v.1.15,2013-08-14 19:55:00,
2013-08-14 16:05:00,70.4,54.0,29.79,WNW,287,2.0,15.0,56,0.00,,,0.00,Wunderground v.1.15,2013-08-14 20:05:00,
2013-08-14 16:10:00,70.6,54.6,29.79,West,277,2.0,2.0,57,0.00,,,0.00,Wunderground v.1.15,2013-08-14 20:10:00,
2013-08-14 16:15:00,70.8,54.8,29.79,NNW,338,3.0,8.0,57,0.00,,,0.00,Wunderground v.1.15,2013-08-14 20:15:00,
2013-08-14 16:25:00,71.0,54.5,29.79,NW,314,4.0,15.0,56,0.00,,,0.00,Wunderground v.1.15,2013-08-14 20:25:00,
2013-08-14 16:35:00,71.6,56.5,29.79,NW,305,2.0,15.0,59,0.00,,,0.00,Wunderground v.1.15,2013-08-14 20:35:00,
2013-08-14 16:45:00,71.9,55.8,29.79,NW,310,2.0,15.0,57,0.00,,,0.00,Wunderground v.1.15,2013-08-14 20:45:00,
2013-08-14 16:55:00,71.4,53.9,29.80,NW,313,3.0,15.0,54,0.00,,,0.00,Wunderground v.1.15,2013-08-14 20:55:00,
2013-08-14 17:05:00,71.5,54.0,29.81,WNW,294,2.0,15.0,54,0.00,,,0.00,Wunderground v.1.15,2013-08-14 21:05:00,
2013-08-14 17:10:00,71.4,54.4,29.81,WNW,301,2.0,15.0,55,0.00,,,0.00,Wunderground v.1.15,2013-08-14 21:10:00,
2013-08-14 17:20:00,71.2,54.2,29.81,NNE,18,2.0,15.0,55,0.00,,,0.00,Wunderground v.1.15,2013-08-14 21:20:00,
2013-08-14 17:30:00,70.9,53.9,29.82,North,4,3.0,3.0,55,0.00,,,0.00,Wunderground v.1.15,2013-08-14 21:30:00,
2013-08-14 17:40:00,70.9,54.4,29.82,NW,312,2.0,2.0,56,0.00,,,0.00,Wunderground v.1.15,2013-08-14 21:40:00,
2013-08-14 17:45:00,70.8,53.8,29.82,NNE,27,2.0,15.0,55,0.00,,,0.00,Wunderground v.1.15,2013-08-14 21:45:00,
2013-08-14 17:55:00,70.5,54.5,29.82,NW,317,2.0,15.0,57,0.00,,,0.00,Wunderground v.1.15,2013-08-14 21:55:00,
2013-08-14 18:05:00,70.3,54.8,29.82,NNE,15,2.0,4.0,58,0.00,,,0.00,Wunderground v.1.15,2013-08-14 22:05:00,
2013-08-14 18:15:00,69.8,53.9,29.83,WNW,287,2.0,15.0,57,0.00,,,0.00,Wunderground v.1.15,2013-08-14 22:15:00,
2013-08-14 18:25:00,69.3,55.3,29.83,NNW,343,1.0,15.0,61,0.00,,,0.00,Wunderground v.1.15,2013-08-14 22:25:00,
2013-08-14 18:35:00,68.7,54.3,29.84,NW,321,2.0,15.0,60,0.00,,,0.00,Wunderground v.1.15,2013-08-14 22:35:00,
2013-08-14 18:45:00,68.2,53.8,29.84,SW,224,1.0,15.0,60,0.00,,,0.00,Wunderground v.1.15,2013-08-14 22:45:00,
2013-08-14 18:55:00,68.0,54.0,29.84,NNW,327,1.0,15.0,61,0.00,,,0.00,Wunderground v.1.15,2013-08-14 22:55:00,
2013-08-14 19:05:00,67.8,54.3,29.85,NW,308,1.0,15.0,62,0.00,,,0.00,Wunderground v.1.15,2013-08-14 23:05:00,
2013-08-14 19:15:00,67.5,53.6,29.85,NNW,333,1.0,15.0,61,0.00,,,0.00,Wunderground v.1.15,2013-08-14 23:15:00,
2013-08-14 19:20:00,67.4,53.9,29.86,WNW,284,1.0,1.0,62,0.00,,,0.00,Wunderground v.1.15,2013-08-14 23:20:00,
2013-08-14 19:30:00,67.0,53.5,29.86,NNW,338,2.0,2.0,62,0.00,,,0.00,Wunderground v.1.15,2013-08-14 23:30:00,
2013-08-14 19:40:00,66.7,54.1,29.87,West,263,1.0,1.0,64,0.00,,,0.00,Wunderground v.1.15,2013-08-14 23:40:00,
2013-08-14 19:45:00,66.4,53.8,29.87,West,280,0.0,15.0,64,0.00,,,0.00,Wunderground v.1.15,2013-08-14 23:45:00,
2013-08-14 19:55:00,65.8,53.7,29.87,NNE,21,0.0,15.0,65,0.00,,,0.00,Wunderground v.1.15,2013-08-14 23:55:00,
2013-08-14 20:05:00,65.4,53.7,29.88,WNW,293,0.0,15.0,66,0.00,,,0.00,Wunderground v.1.15,2013-08-15 00:05:00,
2013-08-14 20:10:00,65.2,53.6,29.88,WSW,251,0.0,15.0,66,0.00,,,0.00,Wunderground v.1.15,2013-08-15 00:10:00,
2013-08-14 20:15:00,64.9,53.7,29.89,North,9,0.0,15.0,67,0.00,,,0.00,Wunderground v.1.15,2013-08-15 00:15:00,
2013-08-14 20:25:00,64.6,53.8,29.90,NNE,25,0.0,15.0,68,0.00,,,0.00,Wunderground v.1.15,2013-08-15 00:25:00,
2013-08-14 20:35:00,64.3,53.9,29.90,North,356,0.0,15.0,69,0.00,,,0.00,Wunderground v.1.15,2013-08-15 00:35:00,
2013-08-14 20:45:00,64.0,53.6,29.91,NE,38,0.0,15.0,69,0.00,,,0.00,Wunderground v.1.15,2013-08-15 00:45:00,
2013-08-14 20:55:00,63.6,54.0,29.92,NW,310,0.0,15.0,71,0.00,,,0.00,Wunderground v.1.15,2013-08-15 00:55:00,
2013-08-14 21:05:00,63.3,53.3,29.93,NNW,332,0.0,15.0,70,0.00,,,0.00,Wunderground v.1.15,2013-08-15 01:05:00,
2013-08-14 21:10:00,63.3,53.3,29.93,WNW,300,0.0,15.0,70,0.00,,,0.00,Wunderground v.1.15,2013-08-15 01:10:00,
2013-08-14 21:20:00,63.3,54.1,29.94,WNW,291,0.0,15.0,72,0.00,,,0.00,Wunderground v.1.15,2013-08-15 01:20:00,
2013-08-14 21:30:00,63.4,53.8,29.94,NW,308,1.0,15.0,71,0.00,,,0.00,Wunderground v.1.15,2013-08-15 01:30:00,
2013-08-14 21:40:00,63.5,53.9,29.95,NW,318,1.0,15.0,71,0.00,,,0.00,Wunderground v.1.15,2013-08-15 01:40:00,
2013-08-14 21:50:00,63.2,53.6,29.95,North,355,0.0,15.0,71,0.00,,,0.00,Wunderground v.1.15,2013-08-15 01:50:00,
2013-08-14 21:55:00,63.1,53.9,29.95,NW,316,1.0,15.0,72,0.00,,,0.00,Wunderground v.1.15,2013-08-15 01:55:00,
2013-08-14 22:05:00,62.8,54.0,29.96,WNW,301,0.0,15.0,73,0.00,,,0.00,Wunderground v.1.15,2013-08-15 02:05:00,
2013-08-14 22:10:00,62.6,53.8,29.95,WNW,301,0.0,15.0,73,0.00,,,0.00,Wunderground v.1.15,2013-08-15 02:10:00,
2013-08-14 22:20:00,62.2,53.8,29.96,North,349,0.0,15.0,74,0.00,,,0.00,Wunderground v.1.15,2013-08-15 02:20:00,
2013-08-14 22:30:00,61.9,53.9,29.96,WNW,294,0.0,15.0,75,0.00,,,0.00,Wunderground v.1.15,2013-08-15 02:30:00,
2013-08-14 22:40:00,61.6,53.6,29.96,WNW,288,0.0,15.0,75,0.00,,,0.00,Wunderground v.1.15,2013-08-15 02:40:00,
2013-08-14 22:50:00,61.4,53.8,29.97,NW,314,0.0,15.0,76,0.00,,,0.00,Wunderground v.1.15,2013-08-15 02:50:00,
2013-08-14 22:55:00,61.3,54.0,29.97,WNW,297,0.0,15.0,77,0.00,,,0.00,Wunderground v.1.15,2013-08-15 02:55:00,
2013-08-14 23:05:00,61.1,53.8,29.97,North,356,1.0,15.0,77,0.00,,,0.00,Wunderground v.1.15,2013-08-15 03:05:00,
2013-08-14 23:10:00,61.1,53.8,29.97,NW,318,1.0,1.0,77,0.00,,,0.00,Wunderground v.1.15,2013-08-15 03:10:00,
2013-08-14 23:20:00,61.1,53.8,29.98,NNE,25,0.0,15.0,77,0.00,,,0.00,Wunderground v.1.15,2013-08-15 03:20:00,
2013-08-14 23:25:00,61.0,54.1,29.98,WNW,296,0.0,15.0,78,0.00,,,0.00,Wunderground v.1.15,2013-08-15 03:25:00,
2013-08-14 23:35:00,60.8,53.9,29.98,NW,325,0.0,15.0,78,0.00,,,0.00,Wunderground v.1.15,2013-08-15 03:35:00,
2013-08-14 23:40:00,60.7,53.8,29.98,North,1,0.0,15.0,78,0.00,,,0.00,Wunderground v.1.15,2013-08-15 03:40:00,
2013-08-14 23:50:00,60.4,53.9,29.99,North,1,0.0,15.0,79,0.00,,,0.00,Wunderground v.1.15,2013-08-15 03:50:00,